M0CJS Weather Reports


Display with metric or nautical units.
time (UTC)temp
F
wind
direction
speed
MPH
gust
MPH
rain 1hr
in
rain 24hr
in
rain mn
in
humidity
%
barometer
mb
20260902201516 65 203 6.0 15.0 0.00 0.08 0.08 94 1016.2
20260902200516 65 203 8.0 14.0 0.00 0.08 0.08 94 1016.1
20260902195517 65 203 8.0 14.0 0.00 0.08 0.08 94 1015.9
20260902194516 65 203 8.0 15.0 0.00 0.08 0.08 94 1016.0
20260902193517 65 203 5.0 9.0 0.00 0.08 0.08 94 1015.8
20260902192516 66 203 6.0 10.0 0.00 0.08 0.08 94 1015.9
20260902191516 66 203 8.0 13.0 0.00 0.08 0.08 93 1015.8
20260902190536 66 225 8.0 15.0 0.00 0.08 0.08 94 1015.8
20260902185516 66 203 5.0 10.0 0.00 0.08 0.08 94 1015.9
20260902184516 66 203 4.0 7.0 0.00 0.08 0.08 95 1015.7
20260902183516 66 225 4.0 8.0 0.00 0.08 0.08 95 1015.7
20260902182616 66 225 7.0 13.0 0.00 0.08 0.08 95 1015.7
20260902181516 66 203 7.0 13.0 0.00 0.08 0.08 96 1015.6
20260902180516 66 203 7.0 13.0 0.00 0.08 0.08 96 1015.6
20260902175516 65 203 5.0 11.0 0.00 0.08 0.08 96 1015.5
20260902174536 65 203 6.0 14.0 0.00 0.08 0.08 97 1015.6
20260902173516 65 203 8.0 14.0 0.00 0.08 0.08 97 1015.5
20260902172516 65 203 6.0 12.0 0.00 0.08 0.08 97 1015.8
20260902171516 65 225 5.0 10.0 0.00 0.08 0.08 98 1015.8
20260902170516 65 203 6.0 15.0 0.00 0.08 0.08 98 1015.8
20260902165516 65 203 6.0 13.0 0.00 0.08 0.08 98 1015.9
20260902164516 64 180 3.0 9.0 0.00 0.08 0.08 98 1015.9
20260902163516 64 225 5.0 12.0 0.00 0.08 0.08 98 1015.9
20260902162516 64 203 4.0 8.0 0.00 0.08 0.08 98 1015.9
20260902161516 64 203 5.0 10.0 0.00 0.08 0.08 98 1016.0
20260902160516 64 203 6.0 17.0 0.00 0.08 0.08 98 1016.0
20260902155516 64 135 3.0 7.0 0.01 0.08 0.08 98 1016.0
20260902154516 64 203 6.0 12.0 0.01 0.08 0.08 98 1016.0
20260902153516 64 203 5.0 11.0 0.01 0.08 0.08 98 1016.1
20260902152516 64 180 4.0 12.0 0.01 0.08 0.08 98 1016.2
20260902151516 64 158 4.0 16.0 0.01 0.08 0.08 97 1016.2
20260902150516 64 180 5.0 14.0 0.01 0.08 0.08 97 1016.3
20260902145516 64 180 5.0 13.0 0.00 0.07 0.07 97 1016.4
20260902144536 64 180 6.0 15.0 0.01 0.07 0.07 96 1016.5
20260902143536 64 203 7.0 20.0 0.01 0.07 0.07 96 1016.7
20260902142516 64 180 5.0 13.0 0.01 0.07 0.07 96 1016.7
20260902141516 63 203 8.0 16.0 0.02 0.07 0.07 96 1016.8
20260902140516 63 203 7.0 17.0 0.04 0.07 0.07 96 1016.9
20260902135516 63 203 7.0 14.0 0.05 0.07 0.07 96 1017.1
20260902134516 63 203 7.0 19.0 0.04 0.06 0.06 96 1017.3
20260902133516 63 203 5.0 11.0 0.05 0.06 0.06 97 1017.5
20260902132516 63 180 3.0 11.0 0.05 0.06 0.06 96 1017.6
20260902131515 62 158 3.0 7.0 0.04 0.06 0.06 95 1017.7
20260902130516 62 158 3.0 7.0 0.02 0.03 0.03 94 1017.7
20260902125516 62 158 5.0 14.0 0.01 0.02 0.02 93 1017.8
20260902124515 63 158 4.0 9.0 0.01 0.02 0.02 91 1018.1
20260902123516 64 180 4.0 12.0 0.00 0.02 0.02 85 1018.1
20260902122515 64 203 9.0 21.0 0.00 0.02 0.02 82 1018.1
20260902121536 65 180 4.0 10.0 0.00 0.02 0.02 82 1018.3
20260902120516 66 158 4.0 11.0 0.00 0.02 0.02 81 1018.1
20260902115535 67 158 5.0 13.0 0.00 0.02 0.02 79 1018.3
20260902114515 65 180 5.0 16.0 0.00 0.02 0.02 81 1018.6
20260902113516 65 203 7.0 17.0 0.00 0.02 0.02 82 1018.8
20260902112516 65 180 5.0 14.0 0.00 0.02 0.02 83 1018.9
20260902111515 65 203 8.0 16.0 0.00 0.02 0.02 84 1019.1
20260902110515 65 203 6.0 13.0 0.00 0.02 0.02 86 1019.3
20260902105515 65 203 7.0 19.0 0.00 0.02 0.02 82 1019.4
20260902104515 66 203 8.0 16.0 0.00 0.02 0.02 82 1019.6
20260902103515 65 203 7.0 16.0 0.00 0.02 0.02 86 1019.7
20260902102515 64 203 8.0 16.0 0.00 0.02 0.02 86 1019.8
20260902101515 64 203 9.0 15.0 0.00 0.02 0.02 87 1019.9
20260902100515 64 203 8.0 15.0 0.00 0.02 0.02 87 1020.0
20260902095515 63 203 7.0 15.0 0.00 0.02 0.02 89 1020.0
20260902094515 63 203 8.0 20.0 0.00 0.02 0.02 90 1020.0
20260902093515 63 203 7.0 15.0 0.00 0.02 0.02 91 1020.1
20260902092515 63 203 5.0 9.0 0.00 0.02 0.02 93 1020.1
20260902091517 62 203 5.0 12.0 0.00 0.02 0.02 93 1020.1
20260902090517 62 203 5.0 11.0 0.00 0.02 0.02 93 1020.1
20260902085537 62 203 4.0 11.0 0.01 0.02 0.02 94 1020.0
20260902084537 62 203 5.0 12.0 0.01 0.02 0.02 94 1020.3
20260902083517 61 203 5.0 9.0 0.01 0.02 0.02 96 1020.2
20260902082517 60 203 6.0 12.0 0.01 0.02 0.02 95 1020.3
20260902081537 60 203 7.0 14.0 0.01 0.02 0.02 96 1020.3
20260902080537 60 180 2.0 9.0 0.01 0.02 0.02 96 1020.2
20260902075517 60 180 2.0 8.0 0.00 0.01 0.01 96 1020.0
20260902074517 60 180 1.0 5.0 0.00 0.01 0.01 97 1020.2
20260902073537 59 180 1.0 4.0 0.00 0.01 0.01 97 1020.3
20260902072517 59 203 2.0 5.0 0.01 0.01 0.01 97 1020.2
20260902071517 59 135 1.0 4.0 0.01 0.01 0.01 97 1020.0
20260902070537 59 203 1.0 4.0 0.01 0.01 0.01 97 1020.0
20260902065517 59 203 2.0 6.0 0.01 0.01 0.01 96 1019.9
20260902064517 59 225 1.0 3.0 0.01 0.01 0.01 96 1019.9
20260902063517 58 158 1.0 6.0 0.01 0.01 0.01 97 1019.8
20260902062517 58 158 1.0 4.0 0.00 0.00 0.00 96 1019.9
20260902061537 58 180 1.0 4.0 0.00 0.00 0.00 96 1020.0
20260902060517 58 180 1.0 5.0 0.00 0.00 0.00 96 1019.9
20260902055517 58 225 3.0 6.0 0.00 0.00 0.00 95 1019.7
20260902054517 58 203 3.0 7.0 0.00 0.00 0.00 95 1019.6
20260902053517 58 203 4.0 8.0 0.00 0.00 0.00 94 1019.5
20260902052517 58 203 5.0 10.0 0.00 0.00 0.00 94 1019.6
20260902051517 58 203 3.0 6.0 0.00 0.00 0.00 93 1019.7
20260902050537 58 203 3.0 5.0 0.00 0.00 0.00 93 1019.7
20260902045517 58 203 2.0 6.0 0.00 0.00 0.00 92 1019.6
20260902044517 58 203 3.0 8.0 0.00 0.00 0.00 92 1019.8
20260902043617 58 203 3.0 7.0 0.00 0.00 0.00 92 1019.9
20260902042536 58 203 3.0 7.0 0.00 0.00 0.00 92 1019.8
20260902041537 58 203 3.0 7.0 0.00 0.00 0.00 91 1019.8
20260902040536 58 225 3.0 6.0 0.00 0.00 0.00 91 1019.9
20260902035536 58 225 2.0 6.0 0.00 0.00 0.00 91 1019.9
20260902034536 57 203 3.0 5.0 0.00 0.00 0.00 91 1020.0
20260902033516 57 203 1.0 3.0 0.00 0.00 0.00 91 1019.8
20260902032516 57 203 1.0 3.0 0.00 0.00 0.00 90 1019.9
20260902031516 57 0.0 3.0 0.00 0.00 0.00 91 1020.1
20260902030516 57 0.0 0.0 0.00 0.00 0.00 90 1020.2
20260902025556 57 0.0 0.0 0.00 0.00 0.00 91 1020.3
20260902024517 57 0.0 0.0 0.00 0.00 0.00 91 1020.4
20260902023516 57 0.0 1.0 0.00 0.00 0.00 90 1020.5
20260902022516 57 203 1.0 6.0 0.00 0.00 0.00 89 1020.4
20260902021516 57 225 2.0 4.0 0.00 0.00 0.00 89 1020.4
20260902020516 57 203 2.0 4.0 0.00 0.00 0.00 89 1020.4
20260902015536 58 203 3.0 7.0 0.00 0.00 0.00 88 1020.5
20260902014516 58 203 3.0 8.0 0.00 0.00 0.00 88 1020.5
20260902013536 58 225 4.0 6.0 0.00 0.00 0.00 88 1020.5
20260902012518 58 203 4.0 6.0 0.00 0.00 0.00 88 1020.4
20260902011516 58 203 3.0 6.0 0.00 0.00 0.00 87 1020.5
20260902010536 58 203 5.0 9.0 0.00 0.00 0.00 86 1020.6
20260902005516 58 203 5.0 9.0 0.00 0.00 0.00 86 1020.7
20260902004516 58 203 4.0 7.0 0.00 0.00 0.00 86 1020.9
20260902003536 59 203 4.0 7.0 0.00 0.00 0.00 85 1020.9
20260902002516 59 203 4.0 7.0 0.00 0.00 0.00 85 1021.0
20260902001516 59 203 4.0 9.0 0.00 0.00 0.00 85 1021.0
20260902000541 59 203 4.0 9.0 0.00 0.00 0.00 84 1020.9
20260901235516 60 203 3.0 8.0 0.00 0.00 0.00 83 1020.8
20260901234516 60 203 4.0 7.0 0.00 0.00 0.00 83 1020.8
20260901233516 60 225 4.0 10.0 0.00 0.00 0.00 83 1020.7
20260901232519 60 203 4.0 10.0 0.00 0.00 0.00 83 1020.9
20260901231516 60 203 2.0 5.0 0.00 0.00 0.00 82 1021.0
20260901230559 60 203 3.0 7.0 0.00 0.00 0.00 83 1020.9
20260901225516 61 225 4.0 10.0 0.00 0.00 0.00 82 1021.2
20260901224518 61 225 2.0 4.0 0.00 0.00 0.00 81 1021.1
20260901223538 61 225 3.0 8.0 0.00 0.00 0.00 81 1021.2
20260901222516 61 225 3.0 8.0 0.00 0.00 0.00 80 1021.0
20260901221516 61 225 2.0 8.0 0.00 0.00 0.00 80 1021.2
20260901220516 61 225 1.0 5.0 0.00 0.00 0.00 80 1021.1
20260901215516 62 248 1.0 4.0 0.00 0.00 0.00 80 1021.2
20260901214536 62 225 3.0 8.0 0.00 0.00 0.00 80 1021.3
20260901213536 62 203 4.0 7.0 0.00 0.00 0.00 80 1021.2
20260901212537 62 203 3.0 7.0 0.00 0.00 0.00 81 1021.3
20260901211536 62 203 3.0 6.0 0.00 0.00 0.00 80 1021.3
20260901210518 62 203 3.0 6.0 0.00 0.00 0.00 80 1021.3
20260901205517 62 225 3.0 6.0 0.00 0.00 0.00 80 1021.3
20260901204516 62 225 4.0 8.0 0.00 0.00 0.00 79 1021.1
20260901203538 62 225 3.0 6.0 0.00 0.00 0.00 78 1021.0
20260901202517 63 225 2.0 7.0 0.00 0.00 0.00 78 1021.0